Time,TemperatureF,DewpointF,PressureIn,WindDirection,WindDirectionDegrees,WindSpeedMPH,WindSpeedGustMPH,Humidity,HourlyPrecipIn,Conditions,Clouds,dailyrainin,SoftwareType,DateUTC
2013-03-27 00:03:00,33.0,28.0,-100.00,WNW,290,11.0,16.0,79,0.00,,,-99.99,,2013-03-27 04:03:00,
2013-03-27 00:13:00,34.0,28.0,-100.00,NW,305,12.0,16.0,79,0.00,,,-99.99,,2013-03-27 04:13:00,
2013-03-27 00:23:00,33.0,28.0,-100.00,WNW,295,9.0,16.0,80,0.00,,,-99.99,,2013-03-27 04:23:00,
2013-03-27 00:33:00,33.0,28.0,-100.00,WNW,300,9.0,16.0,80,0.00,,,-99.99,,2013-03-27 04:33:00,
2013-03-27 00:42:00,33.0,28.0,-100.00,WNW,300,12.0,16.0,80,0.00,,,-99.99,,2013-03-27 04:42:00,
2013-03-27 00:52:00,33.0,28.0,-100.00,WNW,300,9.0,16.0,81,0.00,,,-99.99,,2013-03-27 04:52:00,
2013-03-27 01:03:00,33.0,28.0,-100.00,WNW,300,11.0,15.0,80,0.00,,,-99.99,,2013-03-27 05:03:00,
2013-03-27 01:12:00,33.0,28.0,-100.00,NW,310,11.0,15.0,81,0.00,,,-99.99,,2013-03-27 05:12:00,
2013-03-27 01:23:00,33.0,28.0,-100.00,NW,305,11.0,15.0,81,0.00,,,-99.99,,2013-03-27 05:23:00,
2013-03-27 01:33:00,33.0,28.0,-100.00,NW,305,10.0,16.0,82,0.00,,,-99.99,,2013-03-27 05:33:00,
2013-03-27 01:42:00,33.0,29.0,-100.00,WNW,300,10.0,14.0,82,0.00,,,-99.99,,2013-03-27 05:42:00,
2013-03-27 01:52:00,33.0,29.0,-100.00,NW,305,10.0,15.0,83,0.00,,,-99.99,,2013-03-27 05:52:00,
2013-03-27 02:02:00,33.0,29.0,-100.00,NW,305,11.0,14.0,82,0.00,,,-99.99,,2013-03-27 06:02:00,
2013-03-27 02:12:00,33.0,29.0,-100.00,NW,305,10.0,13.0,83,0.00,,,-99.99,,2013-03-27 06:12:00,
2013-03-27 02:22:00,33.0,29.0,-100.00,WNW,300,9.0,12.0,83,0.00,,,-99.99,,2013-03-27 06:22:00,
2013-03-27 02:32:00,33.0,29.0,-100.00,WNW,300,10.0,14.0,83,0.00,,,-99.99,,2013-03-27 06:32:00,
2013-03-27 02:42:00,33.0,29.0,-100.00,NW,305,11.0,16.0,83,0.00,,,-99.99,,2013-03-27 06:42:00,
2013-03-27 02:52:00,33.0,29.0,-100.00,NW,305,11.0,16.0,83,0.00,,,-99.99,,2013-03-27 06:52:00,
2013-03-27 03:02:00,33.0,29.0,-100.00,NW,305,9.0,16.0,84,0.00,,,-99.99,,2013-03-27 07:02:00,
2013-03-27 03:12:00,33.0,29.0,-100.00,NW,305,9.0,14.0,84,0.00,,,-99.99,,2013-03-27 07:12:00,
2013-03-27 03:22:00,33.0,29.0,-100.00,NW,305,10.0,14.0,84,0.00,,,-99.99,,2013-03-27 07:22:00,
2013-03-27 03:32:00,33.0,29.0,-100.00,NW,305,9.0,14.0,84,0.00,,,-99.99,,2013-03-27 07:32:00,
2013-03-27 03:42:00,33.0,29.0,-100.00,NW,305,9.0,13.0,84,0.00,,,-99.99,,2013-03-27 07:42:00,
2013-03-27 03:53:00,33.0,29.0,-100.00,WNW,300,10.0,13.0,84,0.00,,,-99.99,,2013-03-27 07:53:00,
2013-03-27 04:02:00,33.0,29.0,-100.00,NW,305,9.0,13.0,85,0.00,,,-99.99,,2013-03-27 08:02:00,
2013-03-27 04:12:00,33.0,29.0,-100.00,NW,305,9.0,12.0,85,0.00,,,-99.99,,2013-03-27 08:12:00,
2013-03-27 04:22:00,33.0,29.0,-100.00,NW,310,9.0,14.0,84,0.00,,,-99.99,,2013-03-27 08:22:00,
2013-03-27 04:32:00,33.0,29.0,-100.00,NW,305,9.0,14.0,83,0.00,,,-99.99,,2013-03-27 08:32:00,
2013-03-27 04:43:00,33.0,29.0,-100.00,NW,315,7.0,11.0,84,0.00,,,-99.99,,2013-03-27 08:43:00,
2013-03-27 04:52:00,33.0,29.0,-100.00,NW,315,7.0,11.0,84,0.00,,,-99.99,,2013-03-27 08:52:00,
2013-03-27 05:02:00,33.0,29.0,-100.00,WNW,295,9.0,12.0,84,0.00,,,-99.99,,2013-03-27 09:02:00,
2013-03-27 05:12:00,33.0,29.0,-100.00,WNW,300,7.0,14.0,84,0.00,,,-99.99,,2013-03-27 09:12:00,
2013-03-27 05:22:00,33.0,29.0,-100.00,WNW,295,9.0,13.0,85,0.00,,,-99.99,,2013-03-27 09:22:00,
2013-03-27 05:33:00,33.0,29.0,-100.00,NW,305,9.0,12.0,86,0.00,,,-99.99,,2013-03-27 09:33:00,
2013-03-27 05:42:00,33.0,29.0,-100.00,NW,305,8.0,12.0,86,0.00,,,-99.99,,2013-03-27 09:42:00,
2013-03-27 05:52:00,33.0,29.0,-100.00,WNW,300,9.0,13.0,86,0.00,,,-99.99,,2013-03-27 09:52:00,
2013-03-27 06:03:00,33.0,29.0,-100.00,WNW,300,9.0,12.0,86,0.00,,,-99.99,,2013-03-27 10:03:00,
2013-03-27 06:12:00,32.0,29.0,-100.00,WNW,300,8.0,12.0,87,0.00,,,-99.99,,2013-03-27 10:12:00,
2013-03-27 06:23:00,32.0,29.0,-100.00,NW,305,9.0,14.0,87,0.00,,,-99.99,,2013-03-27 10:23:00,
2013-03-27 06:32:00,32.0,29.0,-100.00,NW,310,9.0,11.0,87,0.00,,,-99.99,,2013-03-27 10:32:00,
2013-03-27 06:42:00,32.0,29.0,-100.00,WNW,300,8.0,12.0,88,0.00,,,-99.99,,2013-03-27 10:42:00,
2013-03-27 06:52:00,32.0,29.0,-100.00,WNW,300,7.0,11.0,88,0.00,,,-99.99,,2013-03-27 10:52:00,
2013-03-27 07:03:00,32.0,29.0,-100.00,WNW,295,7.0,10.0,89,0.00,,,-99.99,,2013-03-27 11:03:00,
2013-03-27 07:12:00,32.0,29.0,-100.00,NW,305,7.0,11.0,90,0.00,,,-99.99,,2013-03-27 11:12:00,
2013-03-27 07:22:00,32.0,29.0,-100.00,WNW,300,8.0,11.0,90,0.00,,,-99.99,,2013-03-27 11:22:00,
2013-03-27 07:32:00,32.0,29.0,-100.00,WNW,295,7.0,9.0,91,0.00,,,-99.99,,2013-03-27 11:32:00,
2013-03-27 07:42:00,32.0,29.0,-100.00,WNW,300,7.0,10.0,91,0.00,,,-99.99,,2013-03-27 11:42:00,
2013-03-27 07:52:00,32.0,30.0,-100.00,WNW,295,7.0,11.0,92,0.00,,,-99.99,,2013-03-27 11:52:00,
2013-03-27 08:02:00,32.0,30.0,-100.00,WNW,295,8.0,12.0,91,0.00,,,-99.99,,2013-03-27 12:02:00,
2013-03-27 08:12:00,32.0,30.0,-100.00,WNW,295,6.0,9.0,92,0.00,,,-99.99,,2013-03-27 12:12:00,
2013-03-27 08:23:00,32.0,30.0,-100.00,WNW,295,7.0,9.0,92,0.00,,,-99.99,,2013-03-27 12:23:00,
2013-03-27 08:32:00,33.0,30.0,-100.00,WNW,300,6.0,9.0,91,0.00,,,-99.99,,2013-03-27 12:32:00,
2013-03-27 08:43:00,33.0,30.0,-100.00,WNW,300,7.0,9.0,90,0.00,,,-99.99,,2013-03-27 12:43:00,
2013-03-27 08:52:00,33.0,30.0,-100.00,WNW,290,7.0,9.0,89,0.00,,,-99.99,,2013-03-27 12:52:00,
2013-03-27 09:02:00,33.0,30.0,-100.00,WNW,295,9.0,12.0,87,0.00,,,-99.99,,2013-03-27 13:02:00,
2013-03-27 09:12:00,34.0,30.0,-100.00,NW,320,10.0,12.0,84,0.00,,,-99.99,,2013-03-27 13:12:00,
2013-03-27 09:22:00,35.0,29.0,-100.00,WNW,300,10.0,14.0,79,0.00,,,-99.99,,2013-03-27 13:22:00,
2013-03-27 09:32:00,35.0,30.0,-100.00,NW,310,8.0,14.0,80,0.00,,,-99.99,,2013-03-27 13:32:00,
2013-03-27 09:42:00,35.0,29.0,-100.00,NW,305,10.0,15.0,77,0.00,,,-99.99,,2013-03-27 13:42:00,
2013-03-27 10:02:00,36.0,27.0,-100.00,WNW,290,10.0,14.0,69,0.00,,,-99.99,,2013-03-27 14:02:00,
2013-03-27 10:12:00,36.0,27.0,-100.00,WNW,290,11.0,15.0,68,0.00,,,-99.99,,2013-03-27 14:12:00,
2013-03-27 10:22:00,37.0,27.0,-100.00,WNW,295,10.0,15.0,67,0.00,,,-99.99,,2013-03-27 14:22:00,
2013-03-27 10:32:00,37.0,25.0,-100.00,NW,320,10.0,15.0,61,0.00,,,-99.99,,2013-03-27 14:32:00,
2013-03-27 10:42:00,38.0,26.0,-100.00,NW,325,12.0,17.0,61,0.00,,,-99.99,,2013-03-27 14:42:00,
2013-03-27 10:52:00,39.0,26.0,-100.00,NW,305,9.0,18.0,60,0.00,,,-99.99,,2013-03-27 14:52:00,
2013-03-27 11:02:00,39.0,27.0,-100.00,WNW,300,10.0,17.0,61,0.00,,,-99.99,,2013-03-27 15:02:00,
2013-03-27 11:12:00,39.0,27.0,-100.00,WNW,290,12.0,17.0,60,0.00,,,-99.99,,2013-03-27 15:12:00,
2013-03-27 11:22:00,39.0,24.0,-100.00,NNW,330,14.0,21.0,55,0.00,,,-99.99,,2013-03-27 15:22:00,
2013-03-27 11:33:00,39.0,24.0,-100.00,NW,310,16.0,21.0,54,0.00,,,-99.99,,2013-03-27 15:33:00,
2013-03-27 11:42:00,41.0,26.0,-100.00,NW,310,9.0,20.0,54,0.00,,,-99.99,,2013-03-27 15:42:00,
2013-03-27 11:52:00,40.0,23.0,-100.00,WNW,295,14.0,22.0,50,0.00,,,-99.99,,2013-03-27 15:52:00,
2013-03-27 12:03:00,39.0,23.0,-100.00,WNW,295,12.0,19.0,51,0.00,,,-99.99,,2013-03-27 16:03:00,
2013-03-27 12:13:00,39.0,24.0,-100.00,NW,315,14.0,23.0,54,0.00,,,-99.99,,2013-03-27 16:13:00,
2013-03-27 12:22:00,39.0,25.0,-100.00,NW,315,12.0,18.0,55,0.00,,,-99.99,,2013-03-27 16:22:00,
2013-03-27 12:32:00,39.0,24.0,-100.00,NW,315,13.0,19.0,53,0.00,,,-99.99,,2013-03-27 16:32:00,
2013-03-27 12:42:00,40.0,24.0,-100.00,NW,305,14.0,22.0,51,0.00,,,-99.99,,2013-03-27 16:42:00,
2013-03-27 12:52:00,39.0,24.0,-100.00,NW,305,15.0,21.0,53,0.00,,,-99.99,,2013-03-27 16:52:00,
2013-03-27 13:03:00,39.0,24.0,-100.00,NW,310,14.0,21.0,53,0.00,,,-99.99,,2013-03-27 17:03:00,
2013-03-27 13:12:00,40.0,24.0,-100.00,NW,305,14.0,18.0,52,0.00,,,-99.99,,2013-03-27 17:12:00,
2013-03-27 13:22:00,41.0,24.0,-100.00,NW,315,14.0,19.0,51,0.00,,,-99.99,,2013-03-27 17:22:00,
2013-03-27 13:32:00,40.0,23.0,-100.00,NW,310,16.0,19.0,50,0.00,,,-99.99,,2013-03-27 17:32:00,
2013-03-27 13:44:00,40.0,24.0,-100.00,WNW,290,15.0,21.0,52,0.00,,,-99.99,,2013-03-27 17:44:00,
2013-03-27 14:02:00,41.0,27.0,-100.00,WNW,300,9.0,20.0,58,0.00,,,-99.99,,2013-03-27 18:02:00,
2013-03-27 14:12:00,40.0,25.0,-100.00,WNW,285,15.0,19.0,54,0.00,,,-99.99,,2013-03-27 18:12:00,
2013-03-27 14:22:00,41.0,26.0,-100.00,WNW,285,15.0,21.0,54,0.00,,,-99.99,,2013-03-27 18:22:00,
2013-03-27 14:32:00,42.0,24.0,-100.00,NW,305,15.0,19.0,49,0.00,,,-99.99,,2013-03-27 18:32:00,
2013-03-27 14:42:00,41.0,25.0,-100.00,West,270,11.0,20.0,51,0.00,,,-99.99,,2013-03-27 18:42:00,
2013-03-27 14:52:00,40.0,25.0,-100.00,WNW,290,16.0,24.0,54,0.00,,,-99.99,,2013-03-27 18:52:00,
2013-03-27 15:03:00,41.0,25.0,-100.00,WNW,295,14.0,20.0,53,0.00,,,-99.99,,2013-03-27 19:03:00,
2013-03-27 15:12:00,41.0,25.0,-100.00,West,280,15.0,22.0,52,0.00,,,-99.99,,2013-03-27 19:12:00,
2013-03-27 15:22:00,42.0,24.0,-100.00,WNW,285,17.0,23.0,49,0.00,,,-99.99,,2013-03-27 19:22:00,
2013-03-27 15:32:00,42.0,24.0,-100.00,WNW,295,17.0,24.0,50,0.00,,,-99.99,,2013-03-27 19:32:00,
2013-03-27 15:42:00,42.0,24.0,-100.00,WNW,285,17.0,24.0,48,0.00,,,-99.99,,2013-03-27 19:42:00,
2013-03-27 15:52:00,43.0,22.0,-100.00,WNW,295,14.0,22.0,42,0.00,,,-99.99,,2013-03-27 19:52:00,
2013-03-27 16:03:00,43.0,22.0,-100.00,WNW,285,18.0,22.0,43,0.00,,,-99.99,,2013-03-27 20:03:00,
2013-03-27 16:12:00,43.0,24.0,-100.00,WNW,285,14.0,23.0,47,0.00,,,-99.99,,2013-03-27 20:12:00,
2013-03-27 16:22:00,43.0,20.0,-100.00,West,280,18.0,25.0,40,0.00,,,-99.99,,2013-03-27 20:22:00,
2013-03-27 16:32:00,42.0,22.0,-100.00,West,280,18.0,25.0,43,0.00,,,-99.99,,2013-03-27 20:32:00,
2013-03-27 16:42:00,43.0,24.0,-100.00,West,280,16.0,22.0,45,0.00,,,-99.99,,2013-03-27 20:42:00,
2013-03-27 16:52:00,43.0,22.0,-100.00,WNW,285,14.0,22.0,42,0.00,,,-99.99,,2013-03-27 20:52:00,
2013-03-27 17:02:00,44.0,20.0,-100.00,NW,315,19.0,22.0,37,0.00,,,-99.99,,2013-03-27 21:02:00,
2013-03-27 17:12:00,43.0,21.0,-100.00,WNW,300,17.0,24.0,41,0.00,,,-99.99,,2013-03-27 21:12:00,
2013-03-27 17:22:00,43.0,19.0,-100.00,WNW,285,15.0,19.0,38,0.00,,,-99.99,,2013-03-27 21:22:00,
2013-03-27 17:32:00,42.0,21.0,-100.00,WNW,290,19.0,25.0,41,0.00,,,-99.99,,2013-03-27 21:32:00,
2013-03-27 17:43:00,42.0,20.0,-100.00,WNW,295,13.0,22.0,40,0.00,,,-99.99,,2013-03-27 21:43:00,
2013-03-27 17:52:00,42.0,22.0,-100.00,WNW,285,17.0,21.0,44,0.00,,,-99.99,,2013-03-27 21:52:00,
2013-03-27 18:03:00,42.0,20.0,-100.00,NW,305,17.0,22.0,40,0.00,,,-99.99,,2013-03-27 22:03:00,
2013-03-27 18:12:00,43.0,21.0,-100.00,WNW,290,17.0,22.0,40,0.00,,,-99.99,,2013-03-27 22:12:00,
2013-03-27 18:23:00,42.0,22.0,-100.00,WNW,295,17.0,24.0,43,0.00,,,-99.99,,2013-03-27 22:23:00,
2013-03-27 18:33:00,42.0,21.0,-100.00,West,280,16.0,25.0,41,0.00,,,-99.99,,2013-03-27 22:33:00,
2013-03-27 18:42:00,41.0,20.0,-100.00,WNW,295,17.0,25.0,43,0.00,,,-99.99,,2013-03-27 22:42:00,
2013-03-27 18:52:00,42.0,21.0,-100.00,WNW,295,17.0,23.0,43,0.00,,,-99.99,,2013-03-27 22:52:00,
2013-03-27 19:02:00,42.0,19.0,-100.00,WNW,285,17.0,22.0,40,0.00,,,-99.99,,2013-03-27 23:02:00,
2013-03-27 19:12:00,41.0,20.0,-100.00,WNW,295,15.0,23.0,42,0.00,,,-99.99,,2013-03-27 23:12:00,
2013-03-27 19:22:00,41.0,19.0,-100.00,WNW,295,17.0,22.0,40,0.00,,,-99.99,,2013-03-27 23:22:00,
2013-03-27 19:32:00,41.0,20.0,-100.00,WNW,290,16.0,22.0,43,0.00,,,-99.99,,2013-03-27 23:32:00,
2013-03-27 19:42:00,40.0,19.0,-100.00,WNW,285,14.0,22.0,41,0.00,,,-99.99,,2013-03-27 23:42:00,
2013-03-27 19:52:00,40.0,20.0,-100.00,WNW,290,13.0,19.0,45,0.00,,,-99.99,,2013-03-27 23:52:00,
2013-03-27 20:02:00,39.0,20.0,-100.00,WNW,290,15.0,19.0,44,0.00,,,-99.99,,2013-03-28 00:02:00,
2013-03-27 20:12:00,39.0,20.0,-100.00,WNW,295,13.0,17.0,45,0.00,,,-99.99,,2013-03-28 00:12:00,
2013-03-27 20:22:00,38.0,20.0,-100.00,WNW,285,10.0,15.0,48,0.00,,,-99.99,,2013-03-28 00:22:00,
2013-03-27 20:33:00,37.0,20.0,-100.00,WNW,290,9.0,12.0,50,0.00,,,-99.99,,2013-03-28 00:33:00,
2013-03-27 20:43:00,37.0,21.0,-100.00,WNW,300,7.0,11.0,52,0.00,,,-99.99,,2013-03-28 00:43:00,
2013-03-27 20:52:00,37.0,20.0,-100.00,WNW,300,9.0,13.0,49,0.00,,,-99.99,,2013-03-28 00:52:00,
2013-03-27 21:02:00,36.0,20.0,-100.00,WNW,300,8.0,12.0,51,0.00,,,-99.99,,2013-03-28 01:02:00,
2013-03-27 21:12:00,36.0,20.0,-100.00,NW,305,9.0,12.0,52,0.00,,,-99.99,,2013-03-28 01:12:00,
2013-03-27 21:22:00,35.0,20.0,-100.00,NW,310,7.0,12.0,54,0.00,,,-99.99,,2013-03-28 01:22:00,
2013-03-27 21:32:00,35.0,20.0,-100.00,NW,315,7.0,8.0,55,0.00,,,-99.99,,2013-03-28 01:32:00,
2013-03-27 21:42:00,35.0,20.0,-100.00,NW,310,7.0,10.0,55,0.00,,,-99.99,,2013-03-28 01:42:00,
2013-03-27 21:52:00,34.0,20.0,-100.00,NW,310,7.0,10.0,56,0.00,,,-99.99,,2013-03-28 01:52:00,
2013-03-27 22:03:00,35.0,20.0,-100.00,NW,305,7.0,10.0,54,0.00,,,-99.99,,2013-03-28 02:03:00,
2013-03-27 22:12:00,34.0,20.0,-100.00,WNW,300,6.0,9.0,55,0.00,,,-99.99,,2013-03-28 02:12:00,
2013-03-27 22:22:00,34.0,20.0,-100.00,WNW,300,7.0,9.0,54,0.00,,,-99.99,,2013-03-28 02:22:00,
2013-03-27 22:32:00,34.0,19.0,-100.00,NW,305,7.0,9.0,55,0.00,,,-99.99,,2013-03-28 02:32:00,
2013-03-27 22:42:00,34.0,19.0,-100.00,NW,305,7.0,9.0,55,0.00,,,-99.99,,2013-03-28 02:42:00,
2013-03-27 22:52:00,34.0,19.0,-100.00,NW,305,7.0,9.0,55,0.00,,,-99.99,,2013-03-28 02:52:00,
2013-03-27 23:02:00,32.0,20.0,-100.00,WNW,290,7.0,9.0,61,0.00,,,-99.99,,2013-03-28 03:02:00,
2013-03-27 23:12:00,33.0,20.0,-100.00,WNW,290,8.0,11.0,59,0.00,,,-99.99,,2013-03-28 03:12:00,
2013-03-27 23:22:00,33.0,20.0,-100.00,WNW,295,7.0,12.0,59,0.00,,,-99.99,,2013-03-28 03:22:00,
2013-03-27 23:33:00,32.0,20.0,-100.00,WNW,295,6.0,9.0,61,0.00,,,-99.99,,2013-03-28 03:33:00,
2013-03-27 23:43:00,33.0,19.0,-100.00,WNW,300,9.0,13.0,56,0.00,,,-99.99,,2013-03-28 03:43:00,
2013-03-27 23:52:00,33.0,19.0,-100.00,WNW,300,9.0,12.0,57,0.00,,,-99.99,,2013-03-28 03:52:00,